{"data":{"norad_id":47407,"epoch":"2026-05-25T03:27:00.021600Z","epoch_age_seconds":72827,"freshness":"FRESH","line1":"1 47407U 21005BL  26145.14375025  .00007138  00000+0  24144-3 0  9991","line2":"2 47407  53.1584  43.2108 0001228  96.4181 263.6960 15.31717935295066","mean_motion":15.31717935,"eccentricity":0.0001228,"inclination_deg":53.1584,"raan_deg":43.2108,"arg_perigee_deg":96.4181,"mean_anomaly_deg":263.696,"bstar":0.00024144,"rev_number":29506,"period_min":94.012087153631,"perigee_km":469.8454969158,"apogee_km":471.52756797536,"semimajor_km":6848.8235324456,"source":"CELESTRAK","updated_at":"2026-05-25T13:38:16.555592Z"}}